DELTA 1 DEB

Satellite information

Favourite Embed

Satellite Type and Status

DEBRISIN ORBIT

Key statistics

Satellite DELTA 1 DEB at a glance.

Uptime

17629

Days in orbit

Revolutions

≈ 12.8

Per day

Orbit

LEO

Low Earth Orbit

Inclination

29.8

Latest

Satellite identification and parameters

Extended collection of information and parameters for DELTA 1 DEB.

Object identification

Identified? True

Debris? True

Object name: DELTA 1 DEB

International designator: 1977-065EY

Object number (NORAD): 10629

Object ID (CCSDS): 10629

Country: UNITED STATES OF AMERICA (US)

Current information (Y/N): Y

RCS size: SMALL

Orbital parameters

Period: 112.505 minutes

Inclination: 29.8263 deg

SMA: 7719.855 km

Apoapsis: 1969.291 km

Periapsis: 714.15 km

RAAN: 82.3523 deg

Eccentricy: 0.081293

Argument of periapsis: 146.3229 deg

Mean anomaly: 219.1776 deg

Mean motion: 12.79938229 rev/day

Mean motion (dot): 0.00001421 rev/day2

B* drag term: 0.0014375556 1/REarth

Two-line elements (TLE)

Creation date: Oct. 18, 2025, 2:17 a.m.

Reference frame: TEME

Reference center: EARTH

Epoch: Oct. 17, 2025, 6:06 p.m. UTC

TLE line 0: 0 DELTA 1 DEB

TLE line 1: 1 10629U 77065EY 25290.75432597 .00001421 00000-0 14376-2 0 9994

TLE line 2: 2 10629 29.8263 82.3523 0812930 146.3229 219.1776 12.79938229246965

Live tracking on map

Real-time ground track for satellite DELTA 1 DEB.

In-orbit conjunctions

A list of the most updated potential collisions computed for object DELTA 1 DEB.

Target Orbit TCA Probability of collision Miss distance Type
OAO 1 LEO 2025-09-05 15:59:48 0.001042867 375.0 (m) PAYLOAD

Associated space launch

Japanese meteorological satellite built by Hughes Space and Communications Company

DELTA 1 DEB was lifted into orbit during the mission ‘Delta 2914 | Himawari’, on board a Delta 2914 space rocket.

The launch took place on July 14, 1977, 10:39 a.m. from Space Launch Complex 17B.

For more information about the launch, click the button.

Launch to space Delta 2914 | Himawari
Delta 2914 | Himawari

Agency: N/A

Status: Launch Successful

Launch date: July 14, 1977, 10:39 a.m. UTC

Rocket: Delta 2914

Launch pad: Space Launch Complex 17B

Location: Cape Canaveral SFS, FL, USA

...

Latest news about this satellite

There are no fresh news available about this satellite. Check back as we update our databases every day.


Newsletter sign-up

Weekly statistics, charts and insights to help you stay on top of the space industry.